Wind_Speed
16 15 7 2 4 5 4 6 2 3 1 3 11 5 2 3 1 4 5 16 15 18 19 17 15 16 15 13 11 11 12 13 13 13 13 13 12 12 12 13 14 13 11 9 9 8 7 6 5
17 10 2 2 5 4 5 6 8 5 2 12 6 3 5 3 4 6 6 14 13 17 17 16 16 17 17 14 12 11 11 11 12 12 13 12 12 12 12 13 14 12 10 8 7 5 4 3 3
13 6 3 4 4 3 3 6 9 7 16 5 3 6 3 6 9 3 8 12 16 17 17 17 16 17 17 15 13 12 11 12 12 12 12 12 11 11 12 12 12 11 9 7 5 4 2 2 1
7 1 3 4 3 5 4 9 10 2 9 7 5 4 4 7 6 3 8 12 16 16 16 16 16 16 17 15 14 12 11 11 11 11 11 11 11 11 11 11 11 9 7 5 3 2 2 1 1
5 2 4 3 4 4 5 11 13 4 1 5 2 5 3 2 0 3 6 13 17 17 17 16 15 16 16 14 13 12 11 10 10 10 10 10 10 10 10 10 9 7 6 4 3 2 2 2 2
1 2 5 1 3 5 4 10 8 2 7 4 3 1 2 4 8 5 10 14 16 16 16 16 16 16 14 13 12 11 11 10 8 8 8 8 9 9 9 9 9 7 5 3 2 1 1 1 1
5 3 5 3 3 5 3 5 5 5 3 5 1 3 1 4 3 11 16 18 18 16 14 15 15 14 13 11 10 10 9 8 7 6 6 6 7 8 9 9 8 8 6 4 3 2 1 0 1
2 4 2 2 2 3 5 3 3 7 4 3 2 4 5 9 7 13 15 16 15 14 14 13 14 14 14 13 10 8 8 7 6 5 5 5 6 7 8 7 7 7 6 5 4 2 1 3 4
3 4 1 3 5 2 5 7 14 5 11 11 11 4 5 10 13 14 14 14 17 17 16 15 14 13 12 11 10 9 8 7 6 6 6 5 6 6 7 7 7 7 7 5 4 2 3 2 1
4 4 8 3 1 2 7 2 2 10 1 6 19 14 16 18 19 16 16 18 20 21 18 17 16 14 13 12 11 9 7 4 4 5 5 5 6 7 8 8 7 7 6 6 5 4 2 3 1
4 6 5 5 3 4 1 7 7 7 4 9 17 15 17 21 22 20 18 17 15 21 22 18 15 14 12 10 9 8 5 2 3 4 5 7 7 9 9 9 8 6 6 5 6 4 4 4 2
3 6 7 2 3 6 3 4 11 14 7 6 5 9 15 21 23 21 23 22 23 24 23 22 19 18 14 13 13 11 5 2 4 6 7 8 9 9 8 8 9 8 7 6 7 5 5 3 1
4 4 8 10 10 15 9 4 9 21 32 17 17 6 13 14 15 14 16 23 25 26 25 22 20 17 15 14 13 10 6 3 6 7 8 10 9 10 10 10 11 10 12 12 9 7 6 3 2
6 5 6 8 10 11 6 10 10 15 35 17 22 21 7 4 12 19 19 19 22 24 25 23 19 17 11 13 8 9 10 8 8 9 9 10 10 10 10 12 13 15 12 11 10 10 7 5 5
4 3 3 2 3 4 6 1 8 22 25 25 14 27 21 34 15 11 19 17 16 18 17 19 18 12 10 8 8 10 12 11 9 8 10 9 8 11 14 14 13 15 14 13 11 10 9 7 8
4 5 3 5 2 4 8 8 10 31 12 6 27 23 17 17 6 6 9 10 9 10 14 17 16 12 10 9 11 9 10 11 10 9 11 11 11 13 16 17 16 16 13 15 13 11 10 10 11
6 1 1 6 3 2 0 8 9 21 28 19 13 16 11 9 9 7 5 6 8 13 15 14 12 11 11 11 9 10 12 11 12 13 13 12 12 15 16 16 13 8 9 9 11 11 12 14 14
3 2 2 2 3 4 3 10 9 15 12 25 22 20 21 22 22 18 14 14 13 12 8 9 10 10 8 10 11 10 11 11 10 8 8 10 10 13 12 10 12 10 10 9 10 12 14 14 16
1 1 3 4 7 3 3 8 12 26 12 14 23 24 27 24 22 22 22 20 18 16 12 8 5 4 3 6 7 8 9 10 10 9 9 10 11 11 9 10 10 10 11 10 9 9 11 12 13
4 3 5 6 2 3 7 9 12 27 17 20 22 25 27 25 27 25 23 21 21 20 16 11 7 4 2 3 2 5 7 9 11 12 11 13 13 13 15 14 13 12 12 11 12 10 10 13 16
3 5 4 5 4 3 2 5 16 13 28 29 30 28 31 31 31 30 30 29 25 23 18 12 10 7 8 7 7 5 3 4 8 10 12 11 10 12 15 18 18 16 17 17 12 10 16 18 20
2 3 2 3 3 2 3 4 13 10 16 23 25 30 31 32 33 31 28 27 25 22 17 16 13 12 12 11 9 6 4 3 6 10 10 11 13 14 15 17 21 22 21 21 19 18 29 36 35
2 3 4 3 4 3 10 6 7 7 13 14 20 26 31 30 29 29 29 27 24 21 19 16 12 10 9 7 6 6 7 5 5 9 12 13 15 17 18 20 19 18 19 22 24 23 26 26 27
2 5 7 5 3 4 5 5 9 5 5 10 19 24 28 29 28 27 24 21 20 16 14 12 10 9 6 3 1 2 2 3 6 8 11 12 15 17 21 21 20 21 23 24 21 20 21 22 20
7 6 3 3 4 3 2 7 2 6 11 12 14 20 25 24 23 22 22 21 21 20 20 18 15 12 12 11 10 9 7 10 14 13 14 15 16 19 20 23 25 25 25 25 25 22 23 23 20
4 4 5 3 3 3 6 3 1 5 13 14 17 18 22 22 21 21 24 26 27 26 24 24 24 23 22 21 21 20 16 17 17 17 20 21 22 21 22 25 27 28 28 27 27 27 26 23 21
1 4 3 6 3 4 4 3 3 4 8 12 15 18 17 18 21 24 27 29 30 29 28 29 29 29 29 30 30 29 27 26 27 25 24 23 24 25 27 27 27 27 27 27 26 25 22 19 20
4 3 3 4 3 2 1 4 4 4 3 6 14 15 14 16 22 26 30 32 31 31 31 31 32 33 34 34 35 35 34 34 33 32 31 30 28 27 26 27 28 28 30 29 26 24 22 25 23
4 3 6 5 4 5 4 5 5 7 4 3 10 13 13 17 23 28 31 29 29 29 31 32 33 34 35 35 35 35 36 36 35 34 32 30 32 28 25 24 25 25 27 27 27 28 27 21 21
3 3 3 5 2 1 3 4 5 7 5 4 10 13 12 17 24 29 28 29 29 29 29 31 32 34 35 32 32 34 35 30 29 29 27 25 27 31 31 27 26 28 25 25 27 26 28 21 19
Wind_Direction
344 341 7 58 55 65 306 279 290 108 65 90 124 113 118 217 346 262 301 170 167 175 171 171 170 167 171 170 160 149 146 147 149 152 153 153 153 155 156 159 159 157 154 148 136 124 119 128 129
342 337 14 44 76 46 288 274 269 40 0 144 92 56 39 315 321 298 160 160 169 178 173 176 171 170 173 173 166 156 148 146 147 150 153 154 156 157 160 162 164 166 169 166 156 147 135 128 137
341 347 333 96 133 113 275 279 267 35 43 76 83 52 47 329 324 240 159 164 167 179 176 178 174 175 180 180 175 165 156 152 152 155 157 158 160 160 163 167 172 179 184 185 183 188 188 163 139
343 336 37 76 114 193 224 276 256 98 349 41 106 50 351 351 313 187 178 167 173 179 181 178 175 177 184 185 182 177 169 163 159 161 162 165 168 167 169 172 177 185 192 198 195 185 180 190 219
343 73 49 62 327 281 285 338 132 86 118 323 318 156 327 79 166 328 177 172 177 180 181 174 176 181 187 189 188 185 180 175 169 167 167 170 176 180 182 181 178 179 181 176 170 173 181 187 204
37 68 65 315 254 281 42 43 78 107 185 265 308 37 4 322 318 250 188 182 182 188 177 174 179 182 186 189 191 190 188 184 179 178 176 176 182 191 193 194 194 193 190 175 156 174 213 233 248
108 80 171 179 344 331 17 53 11 193 122 278 86 213 168 306 268 187 188 187 186 189 187 181 181 181 184 188 191 194 194 192 190 190 188 191 193 199 204 205 206 206 200 189 196 211 201 125 24
99 91 115 191 157 244 309 65 22 139 205 179 188 24 332 342 227 184 190 194 194 195 191 191 187 187 185 183 182 191 193 195 199 202 205 210 211 212 213 212 210 206 204 205 209 212 98 78 62
134 66 199 230 169 134 320 35 66 113 153 174 168 74 140 286 235 197 191 199 206 205 204 197 196 191 186 182 178 181 189 198 205 207 213 221 231 229 225 220 212 206 207 211 211 165 116 119 104
112 122 214 228 199 33 346 91 117 102 162 241 215 246 231 234 216 201 191 198 207 203 203 208 201 196 192 185 179 176 182 193 220 221 228 232 238 238 234 225 214 211 211 206 188 168 185 191 204
154 175 200 259 152 19 30 294 347 114 169 188 205 223 209 212 214 213 220 222 219 204 199 195 204 201 202 198 194 195 185 214 250 245 249 243 243 244 245 229 208 210 194 192 169 174 182 175 165
144 222 172 256 184 174 205 134 324 307 282 348 240 226 194 208 218 221 230 234 232 218 209 203 197 197 197 198 208 215 195 244 243 245 254 258 253 249 244 218 224 219 209 194 194 189 181 190 225
181 243 199 241 247 256 193 87 191 207 263 290 293 257 228 222 223 218 229 236 242 233 221 210 209 207 203 208 213 218 219 240 234 255 262 261 257 250 247 246 241 232 233 223 218 205 202 225 234
217 227 236 257 244 245 226 190 178 221 200 232 264 292 190 216 227 239 240 233 240 248 234 222 213 213 210 220 227 238 236 240 242 261 274 267 269 258 267 269 264 253 259 239 223 215 219 226 255
298 312 327 240 3 258 219 109 174 248 177 181 253 293 264 267 241 213 220 216 226 227 239 216 211 211 212 211 236 243 237 241 246 263 274 268 275 273 282 279 276 259 251 239 211 220 220 248 265
32 44 36 317 17 332 152 255 233 205 190 351 238 220 261 234 205 192 213 213 204 186 186 192 203 203 203 214 236 257 248 241 243 254 261 261 267 273 280 275 269 267 251 236 238 222 241 258 268
9 231 54 338 273 32 345 257 265 254 225 175 168 195 202 134 117 121 154 157 171 169 169 183 198 205 212 221 236 245 237 236 243 254 261 270 272 270 270 270 260 256 229 214 222 240 258 265 274
243 20 332 249 298 101 239 266 339 350 171 162 171 140 120 106 93 94 97 99 118 126 139 166 174 207 217 240 240 231 227 229 242 250 263 265 275 276 268 255 247 221 225 230 242 259 267 277 287
113 246 258 240 264 193 286 21 8 7 72 123 112 100 95 92 94 95 91 92 97 99 113 122 152 175 193 221 226 223 236 235 242 253 269 263 271 264 256 264 248 228 230 249 261 276 283 290 302
163 196 257 281 285 128 95 33 18 26 20 76 74 76 84 84 81 79 81 82 81 82 80 79 86 77 32 24 282 251 239 235 244 262 270 268 263 254 257 256 241 238 247 259 281 296 316 329 334
211 187 211 197 354 70 134 71 28 16 41 62 75 83 84 83 79 74 71 72 77 77 80 81 76 61 42 31 33 36 21 313 272 267 270 269 260 258 264 258 243 243 258 270 270 303 332 334 334
94 199 137 57 82 204 348 162 43 23 44 52 56 67 72 82 84 83 78 73 72 74 78 76 72 71 64 55 43 10 351 319 294 281 273 271 269 266 272 276 277 280 276 271 276 273 282 300 294
106 57 40 58 91 74 346 72 335 38 43 39 44 57 67 78 79 77 73 71 69 70 71 75 80 79 70 54 48 41 31 7 301 289 291 292 281 277 274 276 274 272 270 276 280 281 280 284 286
76 71 43 48 72 44 314 105 20 30 47 67 59 60 68 77 76 71 67 67 61 58 57 54 53 54 58 47 19 293 313 297 284 287 290 286 278 269 272 272 272 272 276 275 274 276 281 279 282
61 53 349 345 18 205 264 61 7 45 53 58 68 65 65 64 60 51 43 30 20 14 8 1 356 351 345 338 331 320 305 288 276 270 265 264 269 277 281 278 275 274 269 269 272 272 276 279 276
63 125 146 235 180 203 26 88 157 73 71 58 55 59 56 49 39 28 15 7 0 354 346 339 331 327 321 315 311 308 299 290 286 283 274 269 266 262 261 262 266 267 267 268 269 272 275 276 281
164 56 165 106 15 77 136 92 141 89 49 38 35 41 37 29 17 8 359 353 347 342 337 333 326 322 319 315 310 305 300 292 286 280 277 276 272 268 261 260 261 260 264 266 268 270 270 267 284
94 135 46 13 138 152 86 176 201 152 31 9 17 18 14 6 1 355 350 344 340 336 332 328 324 320 315 310 306 304 300 295 290 285 277 272 271 267 264 259 258 259 258 258 255 258 265 279 281
345 27 50 107 111 158 160 252 177 152 149 28 9 6 358 351 350 346 342 341 339 335 332 328 324 320 317 314 308 304 300 298 295 291 289 284 272 270 266 261 262 264 267 266 267 264 276 275 273
74 102 99 112 216 100 153 262 115 130 133 32 2 352 345 344 343 343 344 344 343 339 336 334 333 331 326 322 316 315 313 308 298 295 290 285 280 271 267 263 261 263 268 274 276 279 275 266 274
Height
1510 1507 1507 1506 1516 1518 1529 1517 1504 1508 1507 1505 1504 1504 1510 1510 1512 1521 1507 1508 1510 1513 1516 1519 1521 1523 1525 1527 1527 1527 1528 1530 1531 1533 1534 1536 1538 1540 1542 1543 1545 1546 1547 1548 1548 1549 1549 1550 1550
1510 1508 1508 1507 1523 1541 1534 1509 1505 1509 1506 1506 1505 1508 1508 1510 1508 1508 1508 1509 1512 1514 1516 1519 1521 1524 1526 1528 1529 1529 1530 1531 1533 1534 1536 1537 1539 1541 1542 1544 1546 1547 1548 1548 1549 1549 1550 1550 1550
1510 1509 1509 1512 1529 1540 1533 1509 1502 1508 1505 1503 1504 1505 1508 1511 1508 1508 1507 1510 1513 1516 1518 1519 1521 1524 1527 1528 1530 1531 1531 1532 1533 1535 1536 1538 1540 1541 1543 1545 1546 1548 1548 1549 1549 1550 1550 1551 1551
1511 1511 1512 1521 1524 1515 1515 1504 1503 1504 1505 1504 1504 1507 1507 1507 1507 1509 1509 1510 1514 1517 1519 1521 1523 1525 1528 1529 1531 1532 1533 1534 1534 1535 1537 1538 1540 1542 1543 1545 1547 1548 1549 1550 1550 1550 1551 1551 1552
1510 1510 1524 1527 1523 1514 1509 1502 1499 1505 1509 1504 1503 1506 1506 1507 1508 1510 1511 1512 1515 1517 1520 1522 1524 1526 1529 1531 1532 1533 1534 1535 1536 1536 1537 1539 1541 1543 1544 1546 1547 1548 1549 1549 1550 1550 1551 1551 1551
1510 1512 1533 1536 1525 1511 1505 1505 1505 1507 1508 1507 1506 1504 1504 1506 1508 1510 1513 1515 1519 1521 1521 1523 1525 1527 1529 1532 1533 1535 1535 1536 1537 1538 1538 1539 1541 1543 1544 1545 1546 1547 1548 1549 1550 1550 1550 1550 1550
1510 1518 1529 1525 1523 1515 1506 1504 1509 1508 1512 1506 1504 1504 1503 1505 1508 1510 1514 1517 1519 1523 1526 1526 1528 1530 1532 1534 1535 1537 1537 1538 1538 1539 1540 1540 1541 1542 1544 1545 1545 1546 1547 1548 1548 1548 1548 1549 1549
1510 1515 1523 1522 1524 1518 1508 1505 1510 1507 1512 1507 1504 1504 1504 1508 1510 1512 1517 1520 1522 1524 1527 1529 1530 1531 1533 1534 1535 1537 1538 1539 1539 1540 1541 1541 1541 1542 1543 1544 1545 1545 1546 1547 1547 1548 1548 1548 1548
1510 1524 1531 1521 1520 1516 1510 1507 1508 1509 1510 1511 1508 1506 1507 1507 1513 1514 1517 1521 1522 1524 1527 1529 1531 1532 1533 1534 1536 1537 1539 1540 1540 1540 1541 1541 1542 1542 1543 1543 1544 1544 1545 1546 1546 1547 1547 1547 1547
1510 1526 1523 1512 1512 1512 1510 1508 1513 1512 1517 1516 1516 1518 1512 1510 1512 1514 1515 1517 1518 1522 1525 1529 1529 1531 1534 1535 1536 1537 1538 1539 1541 1541 1541 1541 1541 1542 1543 1544 1543 1543 1544 1544 1545 1545 1546 1546 1546
1510 1518 1512 1509 1512 1514 1514 1510 1506 1513 1518 1516 1514 1514 1513 1512 1512 1513 1514 1516 1516 1519 1523 1526 1530 1533 1535 1536 1538 1538 1539 1540 1541 1542 1541 1541 1541 1541 1542 1543 1543 1543 1543 1543 1544 1544 1545 1544 1544
1510 1508 1509 1509 1510 1511 1512 1512 1512 1509 1511 1516 1514 1513 1512 1512 1512 1513 1514 1515 1516 1518 1524 1526 1528 1530 1532 1533 1536 1538 1539 1539 1540 1542 1541 1540 1540 1540 1542 1542 1542 1542 1542 1542 1543 1543 1543 1544 1543
1507 1505 1506 1506 1506 1505 1508 1513 1513 1512 1505 1510 1513 1512 1515 1513 1513 1512 1513 1514 1515 1517 1520 1525 1529 1531 1533 1532 1534 1536 1537 1538 1539 1539 1540 1540 1540 1540 1541 1542 1541 1541 1540 1540 1541 1541 1541 1542 1541
1503 1503 1503 1503 1503 1504 1504 1506 1516 1509 1510 1518 1513 1515 1513 1513 1515 1514 1512 1513 1514 1515 1517 1521 1527 1530 1531 1533 1533 1536 1537 1536 1537 1538 1539 1539 1539 1539 1540 1540 1540 1540 1538 1539 1538 1539 1539 1540 1540
1503 1504 1501 1500 1502 1501 1502 1506 1504 1504 1505 1508 1516 1514 1510 1512 1512 1507 1510 1510 1511 1511 1515 1519 1526 1529 1530 1532 1534 1535 1535 1534 1536 1537 1538 1538 1537 1538 1538 1537 1538 1536 1536 1536 1536 1537 1537 1538 1537
1506 1508 1516 1504 1502 1501 1502 1517 1498 1497 1504 1509 1509 1508 1509 1508 1508 1508 1511 1508 1508 1510 1513 1519 1524 1526 1529 1531 1535 1534 1533 1534 1534 1536 1536 1535 1535 1535 1534 1534 1533 1532 1533 1533 1534 1535 1535 1535 1534
1517 1522 1515 1510 1502 1503 1505 1507 1497 1497 1496 1501 1507 1509 1509 1508 1507 1508 1508 1506 1508 1512 1512 1516 1522 1525 1528 1532 1533 1533 1532 1533 1535 1534 1533 1533 1532 1531 1530 1531 1530 1531 1531 1531 1533 1533 1533 1532 1531
1523 1519 1516 1517 1506 1506 1512 1508 1503 1496 1495 1496 1499 1506 1509 1511 1511 1515 1513 1511 1513 1515 1518 1521 1525 1529 1530 1532 1532 1532 1532 1532 1533 1531 1531 1530 1529 1529 1528 1528 1529 1529 1530 1531 1531 1531 1530 1528 1527
1511 1515 1517 1511 1504 1503 1506 1514 1512 1500 1499 1503 1502 1510 1511 1516 1516 1518 1519 1518 1517 1517 1521 1524 1525 1529 1530 1531 1530 1530 1531 1530 1531 1530 1529 1529 1528 1528 1527 1526 1527 1526 1528 1529 1528 1529 1527 1526 1523
1512 1515 1518 1508 1502 1502 1511 1524 1515 1511 1513 1514 1516 1517 1518 1521 1520 1522 1522 1522 1522 1522 1525 1528 1530 1530 1529 1529 1530 1528 1529 1529 1528 1528 1527 1526 1525 1525 1524 1523 1524 1524 1525 1526 1526 1529 1526 1522 1521
1509 1514 1511 1510 1504 1505 1510 1523 1525 1525 1523 1522 1525 1527 1525 1528 1528 1529 1528 1526 1527 1526 1527 1529 1529 1529 1530 1531 1529 1527 1526 1526 1526 1525 1524 1523 1522 1522 1522 1521 1519 1519 1522 1522 1523 1524 1525 1522 1519
1509 1502 1502 1503 1513 1524 1512 1539 1537 1539 1536 1533 1536 1533 1533 1534 1535 1535 1535 1535 1535 1535 1534 1533 1533 1532 1532 1531 1530 1528 1525 1524 1524 1523 1522 1521 1521 1520 1518 1519 1519 1518 1516 1515 1516 1515 1518 1516 1514
1505 1501 1506 1508 1519 1522 1526 1540 1549 1541 1545 1545 1543 1540 1539 1539 1539 1540 1539 1540 1540 1539 1537 1537 1536 1534 1534 1532 1530 1529 1524 1524 1524 1522 1520 1519 1519 1518 1517 1515 1513 1514 1514 1513 1510 1509 1509 1509 1508
1502 1507 1517 1524 1531 1549 1536 1544 1555 1554 1551 1553 1549 1546 1545 1545 1544 1543 1542 1541 1540 1540 1540 1539 1536 1533 1532 1531 1530 1527 1521 1518 1519 1520 1519 1517 1514 1513 1513 1512 1510 1509 1509 1510 1507 1505 1504 1503 1501
1507 1522 1545 1542 1551 1552 1537 1547 1568 1560 1557 1557 1553 1551 1550 1547 1545 1544 1543 1544 1544 1542 1540 1538 1536 1533 1531 1529 1528 1525 1518 1518 1519 1515 1513 1511 1511 1509 1509 1508 1507 1504 1505 1503 1501 1500 1498 1497 1497
1516 1523 1546 1540 1555 1550 1539 1556 1568 1563 1560 1559 1557 1555 1552 1549 1549 1547 1546 1544 1542 1538 1536 1536 1534 1532 1529 1527 1524 1520 1518 1517 1515 1510 1508 1506 1504 1503 1503 1501 1501 1501 1499 1497 1496 1495 1493 1492 1491
1514 1529 1524 1545 1550 1552 1558 1564 1562 1562 1561 1559 1558 1555 1553 1551 1549 1546 1544 1542 1539 1537 1535 1532 1529 1524 1521 1517 1515 1513 1510 1508 1506 1504 1502 1499 1498 1496 1496 1494 1494 1494 1493 1492 1491 1490 1488 1486 1486
1512 1520 1533 1544 1550 1553 1552 1556 1557 1559 1561 1559 1557 1555 1553 1551 1549 1546 1542 1539 1536 1533 1530 1526 1521 1515 1513 1510 1507 1503 1499 1496 1494 1492 1490 1490 1489 1488 1486 1486 1485 1485 1485 1484 1483 1483 1482 1480 1480
1525 1527 1537 1543 1552 1559 1563 1555 1550 1556 1559 1560 1558 1556 1554 1551 1548 1545 1542 1538 1534 1529 1524 1520 1516 1511 1507 1502 1497 1492 1489 1487 1484 1482 1481 1481 1479 1479 1478 1478 1477 1476 1477 1478 1477 1476 1475 1474 1474
1524 1530 1538 1555 1543 1560 1559 1556 1552 1555 1558 1558 1557 1556 1553 1551 1547 1544 1539 1535 1531 1527 1522 1518 1513 1507 1502 1497 1492 1487 1482 1480 1477 1474 1473 1473 1471 1470 1470 1470 1470 1470 1471 1471 1471 1471 1471 1468 1468